This is the latest recevied weather packets stored in our database for station/object KK6LVQ-13. If no packets are shown the sender has not sent any weather packets the latest 10 day(s).
| Time | Temp. | Humidity | Pressure | Rain* | Wind** | Luminosity | Snow |
|---|---|---|---|---|---|---|---|
| 1777548147 | 6.11° C | 99% | 1020.8 hPa | 0 mm | - | 0 W/m² | - |
| 1777547844 | 6.11° C | 99% | 1020.8 hPa | 0 mm | - | 0 W/m² | - |
| 1777547540 | 6.11° C | 99% | 1020.9 hPa | 0 mm | - | 0 W/m² | - |
| 1777547238 | 6.67° C | 99% | 1020.7 hPa | 0 mm | - | 0 W/m² | - |
| 1777546935 | 6.67° C | 99% | 1020.7 hPa | 0 mm | - | 0 W/m² | - |
| 1777546632 | 6.67° C | 99% | 1020.9 hPa | 0 mm | - | 0 W/m² | - |
| 1777546328 | 6.11° C | 99% | 1020.9 hPa | 0 mm | - | 0 W/m² | - |
| 1777546026 | 6.67° C | 99% | 1020.8 hPa | 0 mm | - | 0 W/m² | - |
| 1777545721 | 6.67° C | 99% | 1020.9 hPa | 0 mm | - | 0 W/m² | - |
| 1777545419 | 6.67° C | 98% | 1020.8 hPa | 0 mm | - | 0 W/m² | - |
| 1777545115 | 6.67° C | 98% | 1020.8 hPa | 0 mm | - | 0 W/m² | - |
| 1777544813 | 6.67° C | 98% | 1020.6 hPa | 0 mm | - | 0 W/m² | - |
| 1777544508 | 6.67° C | 98% | 1020.7 hPa | 0 mm | - | 0 W/m² | - |
| 1777544205 | 6.67° C | 98% | 1020.7 hPa | 0 mm | - | 0 W/m² | - |
| 1777543902 | 7.22° C | 98% | 1020.7 hPa | 0 mm | - | 0 W/m² | - |
| 1777543599 | 7.22° C | 98% | 1020.6 hPa | 0 mm | - | 0 W/m² | - |
| 1777543294 | 7.22° C | 98% | 1020.9 hPa | 0 mm | - | 0 W/m² | - |
| 1777542990 | 7.22° C | 98% | 1020.7 hPa | 0 mm | - | 0 W/m² | - |
| 1777542681 | 7.78° C | 98% | 1020.9 hPa | 0 mm | - | 0 W/m² | - |
| 1777542378 | 7.78° C | 98% | 1020.7 hPa | 0 mm | - | 0 W/m² | - |
| 1777542075 | 7.22° C | 98% | 1021 hPa | 0 mm | - | 0 W/m² | - |
| 1777541772 | 7.22° C | 98% | 1020.9 hPa | 0 mm | - | 0 W/m² | - |
| 1777541469 | 7.78° C | 98% | 1021 hPa | 0 mm | - | 0 W/m² | - |
| 1777541165 | 7.78° C | 98% | 1021.1 hPa | 0 mm | - | 0 W/m² | - |
| 1777540862 | 7.78° C | 98% | 1021.1 hPa | 0 mm | - | 0 W/m² | - |
* Rain latest hour (hover to see other rain measurements)
** Current wind speed in m/s (hover to see current wind gust speed)